Terminal Aerodrome Forecast
Issued by NWS

Home | Current Version | Previous Version | Text Only | Print | Product List | Glossary On
Versions: 1 2 3 4 5 6 7 8 9 10 11 12 13 14 15
000
FTUS41 KCAR 230500
TAFBHB
TAF
KBHB 230523Z 2306/2406 36003KT P6SM BKN060
     FM230700 03003KT P6SM SCT020 BKN035
     FM231300 VRB04KT P6SM SCT060
      AMD LTD TO CLD VIS AND WIND=

USA.gov is the U.S. government's official web portal to all federal, state and local government web resources and services.